GW3636 Weather Reports


Display with metric or nautical units.
time (UTC)temp
F
wind
direction
speed
MPH
gust
MPH
rain 1hr
in
rain 24hr
in
rain mn
in
humidity
%
barometer
mb
20260505023546 69 194 6.0 12.0 0.00 0.00 0.00 55 1008.7
20260505023059 69 178 7.0 12.0 0.00 0.00 0.00 55 1008.7
20260505022547 69 182 7.0 13.0 0.00 0.00 0.00 55 1008.8
20260505022048 69 179 7.0 13.0 0.00 0.00 0.00 55 1008.7
20260505021554 69 180 6.0 12.0 0.00 0.00 0.00 55 1008.8
20260505021046 69 178 6.0 11.0 0.00 0.00 0.00 54 1008.6
20260505020548 70 197 5.0 10.0 0.00 0.00 0.00 54 1008.7
20260505015548 70 189 4.0 8.0 0.00 0.00 0.00 53 1008.6
20260505015048 70 186 5.0 8.0 0.00 0.00 0.00 53 1008.6
20260505014557 70 188 5.0 8.0 0.00 0.00 0.00 52 1008.5
20260505014051 71 192 4.0 9.0 0.00 0.00 0.00 52 1008.5
20260505013547 71 183 5.0 9.0 0.00 0.00 0.00 51 1008.5
20260505013102 71 183 5.0 10.0 0.00 0.00 0.00 51 1008.5
20260505012549 71 183 4.0 10.0 0.00 0.00 0.00 51 1008.5
20260505012047 72 177 5.0 11.0 0.00 0.00 0.00 51 1008.5
20260505011554 72 171 5.0 11.0 0.00 0.00 0.00 50 1008.5
20260505011047 72 175 6.0 10.0 0.00 0.00 0.00 50 1008.4
20260505010548 72 200 6.0 10.0 0.00 0.00 0.00 50 1008.5
20260505010115 72 180 5.0 9.0 0.00 0.00 0.00 49 1008.4
20260505005547 72 190 5.0 11.0 0.00 0.00 0.00 49 1008.4
20260505005048 72 184 6.0 11.0 0.00 0.00 0.00 49 1008.4
20260505004555 73 183 6.0 9.0 0.00 0.00 0.00 49 1008.5
20260505004046 73 182 6.0 9.0 0.00 0.00 0.00 49 1008.5
20260505003551 73 205 6.0 9.0 0.00 0.00 0.00 49 1008.6
20260505003057 73 187 6.0 13.0 0.00 0.00 0.00 48 1008.5
20260505002547 73 190 7.0 13.0 0.00 0.00 0.00 48 1008.5
20260505002043 73 198 6.0 11.0 0.00 0.00 0.00 48 1008.4
20260505001555 74 193 6.0 11.0 0.00 0.00 0.00 48 1008.4
20260505001046 74 188 6.0 9.0 0.00 0.00 0.00 47 1008.3
20260505000547 74 178 5.0 8.0 0.00 0.00 0.00 47 1008.3
20260505000100 74 194 5.0 10.0 0.00 0.00 0.00 47 1008.2
20260504235547 74 192 6.0 10.0 0.00 0.00 0.00 46 1008.2
20260504235047 74 174 6.0 12.0 0.00 0.00 0.00 46 1008.2
20260504234554 75 171 7.0 12.0 0.00 0.00 0.00 46 1008.2
20260504234048 75 186 7.0 16.0 0.00 0.00 0.00 45 1008.3
20260504233546 75 185 7.0 16.0 0.00 0.00 0.00 45 1008.4
20260504233101 75 180 10.0 16.0 0.00 0.00 0.00 45 1008.5
20260504232549 75 192 10.0 15.0 0.00 0.00 0.00 44 1008.4
20260504232046 75 194 9.0 13.0 0.00 0.00 0.00 45 1008.4
20260504231552 75 215 8.0 17.0 0.00 0.00 0.00 44 1008.4
20260504231043 75 194 10.0 18.0 0.00 0.00 0.00 44 1008.5
20260504230546 75 215 10.0 23.0 0.00 0.00 0.00 43 1008.6
20260504230100 76 216 16.0 24.0 0.00 0.00 0.00 43 1008.7
20260504225543 76 213 14.0 24.0 0.00 0.00 0.00 42 1008.5
20260504225047 76 219 13.0 27.0 0.00 0.00 0.00 42 1008.4
20260504224552 76 190 12.0 27.0 0.00 0.00 0.00 43 1008.4
20260504224046 76 229 9.0 17.0 0.00 0.00 0.00 43 1008.4
20260504223548 76 228 10.0 17.0 0.00 0.00 0.00 44 1008.4
20260504223100 76 190 8.0 18.0 0.00 0.00 0.00 44 1008.6
20260504222544 76 221 9.0 19.0 0.00 0.00 0.00 44 1008.5
20260504222046 76 224 14.0 19.0 0.00 0.00 0.00 43 1008.6
20260504221552 76 194 10.0 19.0 0.00 0.00 0.00 44 1008.6
20260504221043 76 209 8.0 17.0 0.00 0.00 0.00 46 1008.6
20260504220548 76 226 10.0 20.0 0.00 0.00 0.00 44 1008.6
20260504220052 76 251 14.0 23.0 0.00 0.00 0.00 44 1008.7
20260504215547 76 216 15.0 22.0 0.00 0.00 0.00 44 1008.8
20260504215046 76 208 13.0 22.0 0.00 0.00 0.00 44 1008.8
20260504214608 76 216 15.0 22.0 0.00 0.00 0.00 44 1008.7
20260504214047 76 219 15.0 22.0 0.00 0.00 0.00 43 1008.8
20260504213547 76 197 14.0 21.0 0.00 0.00 0.00 44 1008.9
20260504213121 76 200 12.0 21.0 0.00 0.00 0.00 45 1008.8
20260504212547 76 211 13.0 19.0 0.00 0.00 0.00 45 1008.8
20260504212046 76 222 12.0 21.0 0.00 0.00 0.00 45 1008.7
20260504211556 76 225 16.0 21.0 0.00 0.00 0.00 44 1008.6
20260504211048 76 211 15.0 21.0 0.00 0.00 0.00 44 1008.8
20260504210548 76 221 10.0 21.0 0.00 0.00 0.00 46 1008.9
20260504210058 75 214 13.0 26.0 0.00 0.00 0.00 45 1009.0
20260504205546 75 197 16.0 26.0 0.00 0.00 0.00 46 1009.0
20260504205043 75 211 13.0 18.0 0.00 0.00 0.00 46 1009.1
20260504204555 74 213 9.0 18.0 0.00 0.00 0.00 50 1009.2
20260504204047 74 181 5.0 17.0 0.00 0.00 0.00 51 1009.3
20260504203546 74 190 8.0 17.0 0.00 0.00 0.00 52 1009.2
20260504203106 73 174 11.0 21.0 0.00 0.00 0.00 51 1009.3
20260504202547 73 194 12.0 21.0 0.00 0.00 0.00 51 1009.3
20260504202047 74 221 12.0 23.0 0.00 0.00 0.00 51 1009.4
20260504201613 74 213 12.0 23.0 0.00 0.00 0.00 50 1009.5
20260504201051 74 197 13.0 20.0 0.00 0.00 0.00 51 1009.4
20260504200547 73 174 11.0 24.0 0.00 0.00 0.00 53 1009.5
20260504200053 72 194 14.0 24.0 0.00 0.00 0.00 52 1009.5
20260504195545 72 168 16.0 24.0 0.00 0.00 0.00 52 1009.7
20260504195047 72 181 15.0 22.0 0.00 0.00 0.00 53 1009.7
20260504194602 72 215 13.0 22.0 0.00 0.00 0.00 53 1009.7
20260504194048 71 201 13.0 23.0 0.00 0.00 0.00 53 1009.9
20260504193547 71 213 12.0 23.0 0.00 0.00 0.00 54 1010.0
20260504193102 71 167 13.0 20.0 0.00 0.00 0.00 54 1010.1
20260504192547 71 182 13.0 20.0 0.00 0.00 0.00 54 1010.2
20260504192051 70 157 8.0 19.0 0.00 0.00 0.00 54 1010.2
20260504191604 70 147 10.0 18.0 0.00 0.00 0.00 54 1010.3
20260504191048 70 171 10.0 17.0 0.00 0.00 0.00 54 1010.3
20260504190548 69 181 9.0 17.0 0.00 0.00 0.00 56 1010.4
20260504190114 69 127 9.0 20.0 0.00 0.00 0.00 55 1010.4
20260504185549 68 175 11.0 23.0 0.00 0.00 0.00 55 1010.4
20260504185045 67 219 14.0 23.0 0.00 0.00 0.00 56 1010.4
20260504184613 67 197 14.0 23.0 0.00 0.00 0.00 56 1010.5
20260504184046 68 182 10.0 20.0 0.00 0.00 0.00 55 1010.6
20260504183547 67 181 11.0 19.0 0.00 0.00 0.00 57 1010.6
20260504183059 66 188 10.0 20.0 0.00 0.00 0.00 58 1010.7
20260504182546 65 152 10.0 24.0 0.00 0.00 0.00 60 1010.9
20260504182047 65 178 13.0 24.0 0.00 0.00 0.00 60 1011.0
20260504181603 65 156 16.0 24.0 0.00 0.00 0.00 59 1011.1
20260504181047 66 178 6.0 21.0 0.00 0.00 0.00 57 1010.8
20260504180547 66 229 14.0 21.0 0.00 0.00 0.00 55 1011.8
20260504180056 66 244 11.0 19.0 0.00 0.00 0.00 55 1012.0
20260504175546 66 225 13.0 21.0 0.00 0.00 0.00 55 1011.9
20260504175047 67 223 12.0 23.0 0.00 0.00 0.00 54 1011.7
20260504174559 67 188 15.0 23.0 0.00 0.00 0.00 54 1011.4
20260504174047 67 225 17.0 22.0 0.00 0.00 0.00 53 1011.2
20260504173549 67 211 16.0 22.0 0.00 0.00 0.00 52 1011.0
20260504173103 68 229 15.0 22.0 0.00 0.00 0.00 52 1011.0
20260504172547 68 192 13.0 21.0 0.00 0.00 0.00 54 1010.9
20260504172048 67 200 13.0 20.0 0.00 0.00 0.00 55 1010.8
20260504171613 67 170 12.0 22.0 0.00 0.00 0.00 55 1010.8
20260504171047 66 203 13.0 24.0 0.00 0.00 0.00 57 1010.7
20260504170547 66 188 13.0 24.0 0.00 0.00 0.00 57 1010.8
20260504160105 62 206 16.0 26.0 0.00 0.00 0.00 62 1011.6
20260504151047 59 202 14.0 23.0 0.00 0.00 0.00 69 1012.2
20260504150548 59 217 12.0 23.0 0.00 0.00 0.00 71 1012.4
20260504141047 56 216 10.0 20.0 0.00 0.00 0.00 76 1013.2
20260504140548 55 186 12.0 26.0 0.00 0.00 0.00 76 1013.1
20260504140108 55 209 12.0 26.0 0.00 0.00 0.00 76 1013.1
20260504130547 53 220 12.0 19.0 0.00 0.00 0.00 79 1013.6
20260504120109 54 198 13.0 21.0 0.00 0.00 0.00 64 1013.0
20260504110549 51 154 8.0 14.0 0.00 0.00 0.00 64 1012.6
20260504110105 51 165 6.0 14.0 0.00 0.00 0.00 64 1012.6
20260504100549 51 175 6.0 10.0 0.00 0.00 0.00 61 1012.7
20260504081603 51 161 4.0 7.0 0.00 0.00 0.00 60 1013.2
20260504081048 51 159 4.0 9.0 0.00 0.00 0.00 60 1013.1
20260504080546 51 156 4.0 9.0 0.00 0.00 0.00 59 1013.2
20260504060105 53 187 5.0 7.0 0.00 0.00 0.00 59 1014.3
20260504050547 54 190 6.0 11.0 0.00 0.00 0.00 55 1014.7
20260504045548 53 179 5.0 16.0 0.00 0.00 0.00 58 1014.8
20260504045049 53 202 8.0 16.0 0.00 0.00 0.00 58 1014.7
20260504044554 53 163 8.0 15.0 0.00 0.00 0.00 56 1014.6
20260504044047 53 179 7.0 13.0 0.00 0.00 0.00 58 1014.3
20260504043547 53 136 6.0 10.0 0.00 0.00 0.00 59 1014.5
20260504043101 52 161 3.0 6.0 0.00 0.00 0.00 62 1014.9
20260504042546 52 175 2.0 5.0 0.00 0.00 0.00 65 1015.0
20260504042046 52 178 3.0 7.0 0.00 0.00 0.00 66 1015.0
20260504041555 52 184 3.0 7.0 0.00 0.00 0.00 68 1015.1
20260504041046 52 181 4.0 7.0 0.00 0.00 0.00 66 1015.2
20260504040551 52 175 3.0 7.0 0.00 0.00 0.00 64 1015.2
20260504040054 52 170 4.0 8.0 0.00 0.00 0.00 67 1015.2
20260504035547 53 179 5.0 8.0 0.00 0.00 0.00 67 1015.4
20260504035046 53 205 6.0 7.0 0.00 0.00 0.00 65 1015.4
20260504034556 54 210 2.0 5.0 0.00 0.00 0.00 61 1015.3
20260504034050 54 142 2.0 4.0 0.00 0.00 0.00 59 1015.1
20260504033547 54 0 1.0 3.0 0.00 0.00 0.00 61 1015.4
20260504033057 54 219 1.0 3.0 0.00 0.00 0.00 57 1015.4
20260504032547 54 196 1.0 4.0 0.00 0.00 0.00 58 1015.3
20260504032049 54 154 1.0 4.0 0.00 0.00 0.00 55 1015.0
20260504031601 54 124 2.0 3.0 0.00 0.00 0.00 54 1014.9
20260504031056 55 117 1.0 3.0 0.00 0.00 0.00 57 1015.0
20260504030544 55 140 0.0 3.0 0.00 0.00 0.00 58 1015.0
20260504030059 55 0 1.0 2.0 0.00 0.00 0.00 56 1015.2
20260504025548 55 194 1.0 4.0 0.00 0.00 0.00 56 1015.2
20260504025048 55 0 0.0 4.0 0.00 0.00 0.00 56 1015.1
20260504024601 56 107 3.0 4.0 0.00 0.00 0.00 52 1015.1
20260504024048 56 0 0.0 0.0 0.00 0.00 0.00 53 1015.3